Huron, SD

2:06 PM CST on February 08, 2016 (GMT -0600)
Huron Regional

Weather History for KHON - January, 2014

Change the Weather History Date:

Monday, January 27, 2014

  Actual Average Record
Temperature  
Mean Temperature -3 °F 17 °F  
Max Temperature 3 °F 28 °F 62 °F (1989)
Min Temperature -9 °F 7 °F -28 °F (1963)
Degree Days  
Heating Degree Days 68 48  
Month to date heating degree days 1342 1311  
Since 1 July heating degree days 4665 4431  
Cooling Degree Days 0 0  
Month to date cooling degree days 0 0  
Year to date cooling degree days 0 0  
Moisture  
Dew Point -14 °F    
Average Humidity 66    
Maximum Humidity 75    
Minimum Humidity 56    
Precipitation  
Precipitation 0.00 in 0.02 in 1.58 in (1944)
Month to date precipitation 0.16 0.44  
Year to date precipitation 0.16 0.44  
Snow  
Snow 0.00 in 0.20 in 8.20 in (1994)
Month to date snowfall 0.5 6.3  
Since 1 July snowfall 15.9 22.6  
Snow Depth T in    
Sea Level Pressure  
Sea Level Pressure 30.52 in    
Wind  
Wind Speed 10 mph (NW)    
Max Wind Speed 24 mph    
Max Gust Speed 31 mph    
Visibility 10 miles    
Events      
T = Trace of Precipitation, MM = Missing Value Source: NWS Daily Summary

Daily Weather History Graph

Daily Weather History Graph

Search for Another Location

Airport or City:

Trip Planner

Search our weather history database for the weather conditions in past years. The results will help you decide how hot, cold, wet, or windy it might be!

Date:

Astronomy

Jan. 27, 2014 Rise Set
Actual Time 7:56 AM CST 5:35 PM CST
Civil Twilight 7:25 AM CST 6:06 PM CST
Nautical Twilight 6:49 AM CST 6:41 PM CST
Astronomical Twilight 6:15 AM CST 7:16 PM CST
Moon 4:40 AM CST (1/27) 2:21 PM CST (1/27)
Length of Visible Light 10h 41m
Length of Day
9h 39m
Waning Crescent, 14% of the Moon is Illuminated
Jan 27
Waning Crescent
Jan 30
New
Feb 6
First Quarter
Feb 14
Full
Feb 22
Last Quarter

Hourly Weather History & Observations

Time (CST) Temp. Windchill Dew Point Humidity Pressure Visibility Wind Dir Wind Speed Gust Speed Precip Events Conditions
12:24 AM -2.2 °F -25.7 °F -13.0 °F 60% 30.33 in 10.0 mi NNW 21.9 mph 28.8 mph N/A   Scattered Clouds
12:55 AM -4.0 °F -28.1 °F -14.1 °F 62% 30.43 in 10.0 mi NNW 21.9 mph 28.8 mph N/A   Clear
1:55 AM -5.1 °F -27.8 °F -14.1 °F 65% 30.44 in 10.0 mi NNW 18.4 mph 25.3 mph N/A   Clear
2:55 AM -6.0 °F -30.2 °F -15.0 °F 65% 30.47 in 10.0 mi NNW 20.7 mph 25.3 mph N/A   Clear
3:55 AM -7.1 °F -27.6 °F -16.1 °F 65% 30.50 in 10.0 mi NNW 13.8 mph - N/A   Clear
4:39 AM -7.6 °F -31.1 °F -16.6 °F 65% 30.40 in 10.0 mi NNW 18.4 mph - N/A   Mostly Cloudy
4:55 AM -7.1 °F -29.8 °F -16.1 °F 65% 30.51 in 10.0 mi NW 17.3 mph - N/A   Mostly Cloudy
5:25 AM -7.6 °F -32.9 °F -16.6 °F 65% 30.41 in 10.0 mi NNW 21.9 mph 26.5 mph N/A   Scattered Clouds
5:55 AM -8.0 °F -28.0 °F -17.0 °F 65% 30.53 in 10.0 mi NNW 12.7 mph - N/A   Clear
6:55 AM -8.0 °F -30.3 °F -17.0 °F 65% 30.54 in 10.0 mi NW 16.1 mph - N/A   Clear
7:55 AM -9.0 °F -28.4 °F -18.0 °F 65% 30.56 in 10.0 mi NNW 11.5 mph - N/A   Clear
8:55 AM -8.0 °F -26.1 °F -18.0 °F 61% 30.58 in 10.0 mi NNW 10.4 mph - N/A   Clear
9:55 AM -6.0 °F -23.6 °F -17.0 °F 59% 30.60 in 10.0 mi NNW 10.4 mph - N/A   Clear
10:55 AM -4.0 °F -24.5 °F -15.0 °F 59% 30.61 in 10.0 mi NNW 15.0 mph 20.7 mph N/A   Clear
11:55 AM -2.9 °F -20.8 °F -14.1 °F 59% 30.61 in 10.0 mi NW 11.5 mph 18.4 mph N/A   Clear
12:30 PM -2.2 °F -19.9 °F -13.0 °F 60% 30.47 in 10.0 mi NW 11.5 mph - N/A   Mostly Cloudy
12:55 PM -2.0 °F -15.4 °F -11.9 °F 63% 30.58 in 7.0 mi NW 6.9 mph - N/A   Overcast
1:29 PM -0.4 °F -17.6 °F -11.2 °F 60% 30.45 in 10.0 mi WNW 11.5 mph - N/A   Scattered Clouds
1:40 PM -0.4 °F -14.7 °F -11.2 °F 60% 30.44 in 10.0 mi NW 8.1 mph 16.1 mph N/A   Mostly Cloudy
1:55 PM 1.0 °F -14.0 °F -11.0 °F 57% 30.55 in 10.0 mi WNW 9.2 mph - N/A   Mostly Cloudy
2:18 PM 1.4 °F -15.3 °F -11.2 °F 56% 30.43 in 10.0 mi NW 11.5 mph - N/A   Partly Cloudy
2:55 PM 3.0 °F -14.1 °F -9.9 °F 55% 30.54 in 10.0 mi NW 12.7 mph - N/A   Clear
3:55 PM 3.0 °F -12.5 °F -9.9 °F 55% 30.53 in 10.0 mi NW 10.4 mph - N/A   Clear
4:55 PM 1.9 °F -13.8 °F -9.9 °F 58% 30.53 in 10.0 mi NNW 10.4 mph - N/A   Clear
5:55 PM -0.9 °F -8.9 °F -9.9 °F 66% 30.53 in 10.0 mi NNW 3.5 mph - N/A   Clear
6:55 PM -2.9 °F - -11.0 °F 68% 30.54 in 10.0 mi Calm Calm - N/A   Clear
7:55 PM -5.1 °F - -11.9 °F 72% 30.54 in 10.0 mi Calm Calm - N/A   Clear
8:55 PM -5.1 °F - -11.9 °F 72% 30.55 in 10.0 mi Calm Calm - N/A   Clear
9:55 PM -6.0 °F -14.7 °F -11.9 °F 75% 30.55 in 10.0 mi WNW 3.5 mph - N/A   Clear
10:55 PM -8.0 °F -16.9 °F -13.0 °F 79% 30.54 in 10.0 mi WNW 3.5 mph - N/A   Clear
11:55 PM -7.1 °F -19.9 °F -13.0 °F 75% 30.53 in 10.0 mi West 5.8 mph - N/A   Clear